Location: Waco, TX
(31.5480°N, 97.1670°W)
Time: 01:31:13
(UTC-06:00)

Tiangong 2 - Visible Passes

Search period start: 18 January 2018 00:00
Search period end: 28 January 2018 00:00
Orbit: 384 x 390 km, 42.8° (Epoch: 17 January)

Date Brightness Start Highest point End Pass type
(mag) Time Alt. Az. Time Alt. Az. Time Alt. Az.
18 Jan 2.1 05:43:44 42° ENE 05:43:44 42° ENE 05:45:58 10° ENE visible
19 Jan 2.3 06:20:34 24° NW 06:21:00 25° NNW 06:23:45 10° NE visible
20 Jan 4.1 05:24:55 12° NE 05:24:55 12° NE 05:25:15 10° NE visible
20 Jan 3.3 06:57:52 10° NW 06:59:33 13° N 07:01:13 10° NNE visible
21 Jan 3.3 06:01:25 16° N 06:01:25 16° N 06:02:48 10° NNE visible
22 Jan 3.5 06:38:04 10° NNW 06:39:13 11° N 06:40:21 10° NNE visible
24 Jan 3.6 06:18:07 10° NNW 06:18:51 11° N 06:19:50 10° NNE visible
25 Jan 3.4 06:55:35 10° NNW 06:57:31 15° NNE 06:59:27 10° NE visible
26 Jan 3.6 05:58:18 12° N 05:58:28 12° N 05:59:50 10° NNE visible
27 Jan 3.1 06:34:31 10° NNW 06:37:00 21° NNE 06:39:30 10° ENE visible
